When you browse on this site, cookies collect data to enhance your experience and personalize the content and advertising you see.
Visit our Privacy Policy to learn more. By continuing to use the site, you agree to this use of cookies and data.
  • In Hungary
  • List of Countries
  • For 7 days
  • Water Temperature
  • Weather Map
  • News
  • Weather Widgets
  • user-avatar
    Login

    Hourly Weather Lebach

    Today, 12 December, Thursday

    Time Temperature Precipitation Wind Pressure Humidity
    00:00 +1°C° 0 mm 3 mps 731 mmHg 96%
    01:00 +2°C° 0.1 mm 3 mps 731 mmHg 96%
    02:00 +2°C° 0.1 mm 3 mps 730 mmHg 96%
    03:00 +2°C° 0.1 mm 3 mps 730 mmHg 96%
    04:00 +2°C° 0.2 mm 3 mps 730 mmHg 96%
    05:00 +2°C° 0.2 mm 3 mps 730 mmHg 96%
    06:00 +2°C° 0 mm 3 mps 730 mmHg 96%
    07:00 +2°C° 0.1 mm 3 mps 730 mmHg 95%
    08:00 +2°C° 0.1 mm 3 mps 730 mmHg 94%
    09:00 +1°C° 0.1 mm 4 mps 730 mmHg 93%
    10:00 +1°C° 0 mm 4 mps 730 mmHg 90%
    11:00 +1°C° 0 mm 4 mps 730 mmHg 87%
    12:00 +1°C° 0 mm 5 mps 730 mmHg 84%
    13:00 +1°C° 0 mm 4 mps 729 mmHg 84%
    14:00 +1°C° 0 mm 4 mps 728 mmHg 84%
    15:00 0°C° 0 mm 4 mps 727 mmHg 84%
    16:00 0°C° 0 mm 4 mps 726 mmHg 86%
    17:00 0°C° 0 mm 4 mps 725 mmHg 87%
    18:00 -1°C° 0 mm 4 mps 724 mmHg 88%
    19:00 -1°C° 0 mm 4 mps 723 mmHg 87%
    20:00 0°C° 0 mm 3 mps 721 mmHg 85%
    21:00 0°C° 0 mm 3 mps 720 mmHg 83%
    22:00 -1°C° 0.7 mm 4 mps 719 mmHg 88%
    23:00 -1°C° 0.7 mm 5 mps 717 mmHg 92%

    Tomorrow, 13 December, Friday

    Time Temperature Precipitation Wind Pressure Humidity
    00:00 -1°C° 0.7 mm 6 mps 716 mmHg 96%
    01:00 +1°C° 1.1 mm 6 mps 715 mmHg 96%
    02:00 +2°C° 1.1 mm 5 mps 713 mmHg 95%
    03:00 +2°C° 1.1 mm 5 mps 712 mmHg 94%
    04:00 +3°C° 2.1 mm 5 mps 711 mmHg 94%
    05:00 +3°C° 2.1 mm 6 mps 710 mmHg 94%
    06:00 +3°C° 2.1 mm 7 mps 709 mmHg 94%
    07:00 +3°C° 0.5 mm 7 mps 710 mmHg 94%
    08:00 +2°C° 0.5 mm 7 mps 710 mmHg 93%
    09:00 +2°C° 0.5 mm 7 mps 710 mmHg 93%
    10:00 +2°C° 1 mm 7 mps 711 mmHg 94%
    11:00 0°C° 1 mm 8 mps 711 mmHg 95%
    12:00 0°C° 1 mm 8 mps 712 mmHg 96%
    13:00 0°C° 1.4 mm 8 mps 713 mmHg 95%
    14:00 0°C° 1.4 mm 8 mps 714 mmHg 95%
    15:00 0°C° 1.4 mm 8 mps 715 mmHg 95%
    16:00 0°C° 0.4 mm 8 mps 716 mmHg 93%
    17:00 0°C° 0.4 mm 8 mps 717 mmHg 90%
    18:00 +2°C° 0.4 mm 7 mps 718 mmHg 88%
    19:00 +2°C° 0.1 mm 7 mps 719 mmHg 89%
    20:00 +2°C° 0.1 mm 7 mps 720 mmHg 90%
    21:00 +2°C° 0.1 mm 6 mps 721 mmHg 90%
    22:00 +2°C° 0.3 mm 6 mps 721 mmHg 91%
    23:00 +2°C° 0.3 mm 6 mps 722 mmHg 92%

    Day after tomorrow, 14 December, Saturday

    Time Temperature Precipitation Wind Pressure Humidity
    00:00 +2°C° 0.3 mm 7 mps 723 mmHg 93%
    01:00 +2°C° 0.1 mm 7 mps 722 mmHg 92%
    02:00 +2°C° 0.1 mm 7 mps 722 mmHg 90%
    03:00 +1°C° 0.1 mm 6 mps 722 mmHg 89%
    04:00 +2°C° 0.7 mm 7 mps 722 mmHg 90%
    05:00 +2°C° 0.7 mm 7 mps 722 mmHg 91%
    06:00 +2°C° 0.7 mm 8 mps 722 mmHg 91%
    07:00 +2°C° 0.2 mm 8 mps 722 mmHg 88%
    08:00 +4°C° 0.2 mm 8 mps 723 mmHg 84%
    09:00 +4°C° 0.2 mm 8 mps 724 mmHg 80%
    10:00 +4°C° 0.1 mm 8 mps 725 mmHg 78%
    11:00 +4°C° 0.1 mm 8 mps 726 mmHg 76%
    12:00 +5°C° 0.1 mm 7 mps 727 mmHg 74%
    13:00 +4°C° 0 mm 6 mps 728 mmHg 77%
    14:00 +5°C° 0 mm 5 mps 728 mmHg 79%
    15:00 +5°C° 0 mm 4 mps 728 mmHg 82%
    16:00 +5°C° 0 mm 4 mps 728 mmHg 84%
    17:00 +5°C° 0 mm 5 mps 728 mmHg 87%
    18:00 +5°C° 0 mm 5 mps 728 mmHg 89%
    19:00 +5°C° 0 mm 5 mps 728 mmHg 88%
    20:00 +6°C° 0 mm 5 mps 729 mmHg 87%
    21:00 +6°C° 0 mm 5 mps 729 mmHg 86%
    22:00 +6°C° 0.1 mm 4 mps 729 mmHg 89%
    23:00 +6°C° 0.1 mm 4 mps 729 mmHg 91%

    15 December, Sunday

    Time Temperature Precipitation Wind Pressure Humidity
    00:00 +6°C° 0.1 mm 4 mps 728 mmHg 94%
    01:00 +7°C° 1.3 mm 5 mps 728 mmHg 92%
    02:00 +8°C° 1.3 mm 7 mps 727 mmHg 90%
    03:00 +9°C° 1.3 mm 8 mps 727 mmHg 88%
    04:00 +9°C° 2.9 mm 8 mps 727 mmHg 89%
    05:00 +7°C° 2.9 mm 8 mps 728 mmHg 89%
    06:00 +7°C° 2.9 mm 8 mps 728 mmHg 90%
    07:00 +6°C° 1 mm 7 mps 729 mmHg 89%
    08:00 +6°C° 1 mm 7 mps 730 mmHg 88%
    09:00 +7°C° 1 mm 6 mps 731 mmHg 88%
    10:00 +7°C° 0.2 mm 6 mps 731 mmHg 85%
    11:00 +7°C° 0.2 mm 5 mps 732 mmHg 82%
    12:00 +7°C° 0.2 mm 5 mps 733 mmHg 79%
    13:00 +6°C° 0 mm 4 mps 733 mmHg 80%
    14:00 +6°C° 0 mm 4 mps 733 mmHg 80%
    15:00 +7°C° 0 mm 3 mps 733 mmHg 81%
    16:00 +7°C° 0.3 mm 3 mps 733 mmHg 85%
    17:00 +5°C° 0.3 mm 3 mps 733 mmHg 89%
    18:00 +5°C° 0.3 mm 3 mps 733 mmHg 92%
    19:00 +5°C° 0.2 mm 3 mps 733 mmHg 93%
    20:00 +7°C° 0.2 mm 2 mps 733 mmHg 94%
    21:00 +7°C° 0.2 mm 2 mps 734 mmHg 95%
    22:00 +7°C° 0.2 mm 2 mps 733 mmHg 96%
    23:00 +7°C° 0.2 mm 2 mps 733 mmHg 96%

    16 December, Monday

    Time Temperature Precipitation Wind Pressure Humidity
    00:00 +8°C° 0.2 mm 2 mps 733 mmHg 96%
    01:00 +8°C° 0.2 mm 3 mps 733 mmHg 96%
    02:00 +8°C° 0.2 mm 3 mps 733 mmHg 95%
    03:00 +7°C° 0.2 mm 4 mps 733 mmHg 94%
    04:00 +8°C° 0.6 mm 3 mps 733 mmHg 94%
    05:00 +8°C° 0.6 mm 3 mps 733 mmHg 95%
    06:00 +8°C° 0.6 mm 2 mps 733 mmHg 95%
    07:00 +8°C° 0.1 mm 2 mps 733 mmHg 93%
    08:00 +8°C° 0.1 mm 2 mps 733 mmHg 91%
    09:00 +8°C° 0.1 mm 2 mps 732 mmHg 89%
    10:00 +8°C° 0.4 mm 3 mps 732 mmHg 90%
    11:00 +8°C° 0.4 mm 3 mps 732 mmHg 91%
    12:00 +8°C° 0.4 mm 3 mps 731 mmHg 92%
    13:00 +8°C° 0.8 mm 3 mps 731 mmHg 91%
    14:00 +8°C° 0.8 mm 3 mps 731 mmHg 91%
    15:00 +8°C° 0.8 mm 2 mps 730 mmHg 90%
    16:00 +8°C° 0 mm 3 mps 730 mmHg 86%
    17:00 +8°C° 0 mm 3 mps 730 mmHg 83%
    18:00 +8°C° 0 mm 3 mps 730 mmHg 80%
    19:00 +8°C° 0 mm 2 mps 730 mmHg 79%
    20:00 +8°C° 0 mm 2 mps 730 mmHg 79%
    21:00 +8°C° 0 mm 2 mps 730 mmHg 78%
    22:00 +8°C° 0 mm 2 mps 730 mmHg 79%
    23:00 +8°C° 0 mm 2 mps 730 mmHg 79%

    17 December, Tuesday

    Time Temperature Precipitation Wind Pressure Humidity
    00:00 +8°C° 0 mm 2 mps 731 mmHg 80%
    01:00 +8°C° 0 mm 2 mps 731 mmHg 79%
    02:00 +7°C° 0 mm 2 mps 731 mmHg 79%
    03:00 +7°C° 0 mm 2 mps 731 mmHg 79%
    04:00 +8°C° 0 mm 1 mps 731 mmHg 79%
    05:00 +9°C° 0 mm 1 mps 731 mmHg 79%
    06:00 +9°C° 0 mm 1 mps 731 mmHg 79%
    07:00 +8°C° 0.4 mm 2 mps 732 mmHg 82%
    08:00 +8°C° 0.4 mm 2 mps 732 mmHg 85%
    09:00 +8°C° 0.4 mm 3 mps 733 mmHg 87%
    10:00 +8°C° 0.2 mm 3 mps 733 mmHg 87%
    11:00 +8°C° 0.2 mm 2 mps 733 mmHg 86%
    12:00 +9°C° 0.2 mm 2 mps 733 mmHg 85%
    13:00 +9°C° 0.3 mm 2 mps 734 mmHg 88%
    14:00 +8°C° 0.3 mm 2 mps 734 mmHg 91%
    15:00 +8°C° 0.3 mm 2 mps 735 mmHg 93%
    16:00 +8°C° 0.4 mm 2 mps 735 mmHg 93%
    17:00 +7°C° 0.4 mm 2 mps 736 mmHg 93%
    18:00 +7°C° 0.4 mm 2 mps 737 mmHg 93%
    19:00 +6°C° 0 mm 2 mps 738 mmHg 93%
    20:00 +6°C° 0 mm 2 mps 739 mmHg 92%
    21:00 +5°C° 0 mm 2 mps 740 mmHg 91%
    22:00 +6°C° 0 mm 1 mps 740 mmHg 92%
    23:00 +5°C° 0 mm 1 mps 741 mmHg 92%
    Show more